Flag for Mexico Weather past 2 weeks in Guadalajara, Jalisco, Mexico

Now
52 °F

Clear.


Feels Like: 52 °F
Forecast: 56 / 82 °F
Wind: No wind

Location: Don Miguel / Guadalaj

Current Time: Mar 29, 2015 at 7:04:15 AM

Latest Report: Mar 29, 2015 at 5:57 AM


Visibility: 8 mi

Pressure: 30.00 "Hg

Humidity: 82%

Dew point: 46 °F

Location of GuadalajaraLocation

Historic Weather in Guadalajara — Graph

°F

Guadalajara temperature yesterday

Maximum temperature yesterday: 82 °F (at 2:50 PM)
Minimum temperature yesterday: 57 °F (at 7:52 AM)
Average temperature yesterday: 69 °F

Past Weeks' High & Low Weather Summary

 TemperatureHumidityPressure
High84 °F (Mar 24, 3:47 PM)100% (Mar 16, 7:22 PM)30.30 "Hg (Mar 16, 7:22 PM)
Low34 °F (Mar 16, 7:22 PM)11% (Mar 23, 6:52 PM)29.73 "Hg (Mar 14, 5:46 AM)
Average64 °F60%30.08 "Hg
* Reported Mar 14 5:46 AM — Mar 29 5:57 AM, Guadalajara, Weather by CustomWeather, © 2015

Note: Actual official high and low records may vary slightly from our data, if they occured in-between our weather recording intervals... More about our weather records

Advertising

Guadalajara weather history for previous 24 hours

 ConditionsComfort  
Time TempWeatherWind HumidityBarometerVisibility
5:57 AM
Sun, Mar 29
52 °FClear.No wind82%30.00 "Hg8 mi
4:55 AM54 °FClear.No wind77%30.27 "Hg8 mi
3:55 AM57 °FClear.No wind67%30.27 "Hg8 mi
2:50 AM59 °FClear.No wind63%29.94 "Hg8 mi
1:56 AM61 °FClear.No wind63%30.28 "Hg8 mi
12:59 AM61 °FClear.6 mph63%30.29 "Hg10 mi
11:54 PM
Sat, Mar 28
64 °FClear.8 mph52%29.98 "Hg10 mi
10:51 PM64 °FClear.6 mph46%30.27 "Hg10 mi
9:47 PM66 °FPassing clouds.No wind43%30.25 "Hg10 mi
8:53 PM72 °FPassing clouds.No wind33%29.93 "Hg10 mi
7:50 PM75 °FPassing clouds.7 mph25%30.19 "Hg10 mi
6:53 PM79 °FPartly sunny.3 mph21%30.15 "Hg10 mi
4:47 PM82 °FPartly sunny.8 mph16%30.12 "Hg10 mi
3:47 PM82 °FPartly sunny.5 mph21%30.14 "Hg10 mi
2:50 PM82 °FScattered clouds.6 mph25%29.80 "Hg10 mi
12:53 PM79 °FScattered clouds.6 mph32%30.23 "Hg10 mi
11:52 AM75 °FScattered clouds.12 mph41%29.95 "Hg8 mi
10:57 AM72 °FPassing clouds.9 mph44%30.29 "Hg8 mi
9:52 AM68 °FPartly sunny.No wind49%30.30 "Hg8 mi
8:48 AM64 °FBroken clouds.No wind56%30.01 "Hg8 mi
7:52 AM57 °FBroken clouds.No wind72%30.28 "Hg8 mi
Weather by CustomWeather, © 2015

See weather overviewHow to use our weather pages